Time,TemperatureF,DewpointF,PressureIn,WindDirection,WindDirectionDegrees,WindSpeedMPH,WindSpeedGustMPH,Humidity,HourlyPrecipIn,Conditions,Clouds,dailyrainin,SoftwareType,DateUTC
2013-09-20 00:00:00,44.4,42.2,29.93,SSE,148,0.0,0.0,92,0.00,,,0.03,VWS V14.01,2013-09-20 06:00:00,
2013-09-20 00:02:00,43.3,41.7,29.93,SSW,212,0.0,0.0,94,0.00,,,0.00,VWS V14.01,2013-09-20 06:02:00,
2013-09-20 00:05:00,44.6,42.7,29.93,SSE,167,2.0,2.0,93,0.00,,,0.03,VWS V14.01,2013-09-20 06:05:00,
2013-09-20 00:07:00,43.2,41.6,29.92,SSW,205,0.0,0.0,94,0.00,,,0.00,VWS V14.01,2013-09-20 06:07:00,
2013-09-20 00:10:00,44.8,42.9,29.93,SSW,210,2.0,2.0,93,0.00,,,0.03,VWS V14.01,2013-09-20 06:10:00,
2013-09-20 00:12:00,43.0,41.4,29.93,SE,125,0.0,0.0,94,0.00,,,0.00,VWS V14.01,2013-09-20 06:12:00,
2013-09-20 00:15:00,44.6,42.7,29.93,SSW,207,2.0,3.0,93,0.00,,,0.03,VWS V14.01,2013-09-20 06:15:00,
2013-09-20 00:17:00,42.9,41.3,29.92,SE,126,0.0,0.0,94,0.00,,,0.00,VWS V14.01,2013-09-20 06:17:00,
2013-09-20 00:20:00,44.7,43.1,29.93,SSW,211,0.0,3.0,94,0.00,,,0.03,VWS V14.01,2013-09-20 06:20:00,
2013-09-20 00:22:00,42.6,41.0,29.92,SSE,162,0.0,0.0,94,0.00,,,0.00,VWS V14.01,2013-09-20 06:22:00,
2013-09-20 00:25:00,44.5,42.9,29.93,SSW,211,0.0,0.0,94,0.00,,,0.03,VWS V14.01,2013-09-20 06:25:00,
2013-09-20 00:27:00,42.0,40.4,29.92,SSE,165,0.0,0.0,94,0.00,,,0.00,VWS V14.01,2013-09-20 06:27:00,
2013-09-20 00:30:00,44.6,43.0,29.93,SSW,211,0.0,1.0,94,0.00,,,0.03,VWS V14.01,2013-09-20 06:30:00,
2013-09-20 00:32:00,41.8,40.2,29.92,SE,146,0.0,0.0,94,0.00,,,0.00,VWS V14.01,2013-09-20 06:32:00,
2013-09-20 00:35:00,44.7,43.1,29.93,SSW,211,0.0,0.0,94,0.00,,,0.03,VWS V14.01,2013-09-20 06:35:00,
2013-09-20 00:38:00,42.1,40.8,29.92,SE,143,0.0,0.0,95,0.00,,,0.00,VWS V14.01,2013-09-20 06:38:00,
2013-09-20 00:40:00,44.6,43.0,29.93,SSW,211,0.0,0.0,94,0.00,,,0.03,VWS V14.01,2013-09-20 06:40:00,
2013-09-20 00:43:00,41.9,40.3,29.92,SE,143,0.0,0.0,94,0.00,,,0.00,VWS V14.01,2013-09-20 06:43:00,
2013-09-20 00:45:00,44.3,42.7,29.93,SSW,211,0.0,0.0,94,0.00,,,0.03,VWS V14.01,2013-09-20 06:45:00,
2013-09-20 00:48:00,41.7,40.1,29.92,SE,144,0.0,0.0,94,0.00,,,0.00,VWS V14.01,2013-09-20 06:48:00,
2013-09-20 00:50:00,44.0,42.4,29.93,SSW,211,0.0,0.0,94,0.00,,,0.03,VWS V14.01,2013-09-20 06:50:00,
2013-09-20 00:53:00,41.6,40.0,29.92,SE,144,0.0,0.0,94,0.00,,,0.00,VWS V14.01,2013-09-20 06:53:00,
2013-09-20 00:55:00,43.5,41.6,29.93,SSW,211,0.0,0.0,93,0.00,,,0.03,VWS V14.01,2013-09-20 06:55:00,
2013-09-20 00:58:00,41.4,39.8,29.92,SE,144,0.0,0.0,94,0.00,,,0.00,VWS V14.01,2013-09-20 06:58:00,
2013-09-20 01:00:00,43.3,41.7,29.93,SSW,211,0.0,0.0,94,0.00,,,0.03,VWS V14.01,2013-09-20 07:00:00,
2013-09-20 01:03:00,41.8,40.5,29.92,SE,142,0.0,0.0,95,0.00,,,0.00,VWS V14.01,2013-09-20 07:03:00,
2013-09-20 01:05:00,43.2,41.6,29.93,SSW,212,0.0,0.0,94,0.00,,,0.00,VWS V14.01,2013-09-20 07:05:00,
2013-09-20 01:08:00,42.0,40.7,29.92,East,93,0.0,0.0,95,0.00,,,0.00,VWS V14.01,2013-09-20 07:08:00,
2013-09-20 01:10:00,43.1,41.5,29.93,SE,125,0.0,0.0,94,0.00,,,0.00,VWS V14.01,2013-09-20 07:10:00,
2013-09-20 01:13:00,41.7,40.4,29.92,East,93,0.0,0.0,95,0.00,,,0.00,VWS V14.01,2013-09-20 07:13:00,
2013-09-20 01:15:00,43.0,41.4,29.93,SE,126,0.0,0.0,94,0.00,,,0.00,VWS V14.01,2013-09-20 07:15:00,
2013-09-20 01:18:00,42.0,40.7,29.92,NNE,15,0.0,0.0,95,0.00,,,0.00,VWS V14.01,2013-09-20 07:18:00,
2013-09-20 01:20:00,42.8,41.2,29.92,SE,133,0.0,0.0,94,0.00,,,0.00,VWS V14.01,2013-09-20 07:20:00,
2013-09-20 01:23:00,41.7,40.4,29.92,NNE,13,0.0,0.0,95,0.00,,,0.00,VWS V14.01,2013-09-20 07:23:00,
2013-09-20 01:25:00,42.2,40.3,29.92,SSE,165,0.0,0.0,93,0.00,,,0.00,VWS V14.01,2013-09-20 07:25:00,
2013-09-20 01:28:00,41.1,39.5,29.92,NNE,13,0.0,0.0,94,0.00,,,0.00,VWS V14.01,2013-09-20 07:28:00,
2013-09-20 01:30:00,41.8,40.2,29.92,SSE,165,0.0,0.0,94,0.00,,,0.00,VWS V14.01,2013-09-20 07:30:00,
2013-09-20 01:33:00,40.7,39.1,29.92,NNE,13,0.0,0.0,94,0.00,,,0.00,VWS V14.01,2013-09-20 07:33:00,
2013-09-20 01:35:00,41.9,40.6,29.92,SSE,148,0.0,0.0,95,0.00,,,0.00,VWS V14.01,2013-09-20 07:35:00,
2013-09-20 01:38:00,40.6,39.3,29.92,NNE,13,0.0,0.0,95,0.00,,,0.00,VWS V14.01,2013-09-20 07:38:00,
2013-09-20 01:40:00,42.1,40.8,29.92,SE,143,0.0,0.0,95,0.00,,,0.00,VWS V14.01,2013-09-20 07:40:00,
2013-09-20 01:43:00,40.4,39.1,29.92,SSE,150,0.0,0.0,95,0.00,,,0.00,VWS V14.01,2013-09-20 07:43:00,
2013-09-20 01:45:00,41.8,40.2,29.92,SE,143,0.0,0.0,94,0.00,,,0.00,VWS V14.01,2013-09-20 07:45:00,
2013-09-20 01:48:00,40.6,39.3,29.92,South,172,2.0,3.0,95,0.00,,,0.00,VWS V14.01,2013-09-20 07:48:00,
2013-09-20 01:50:00,41.7,40.1,29.92,SE,144,0.0,0.0,94,0.00,,,0.00,VWS V14.01,2013-09-20 07:50:00,
2013-09-20 01:53:00,40.6,39.3,29.92,SSE,150,1.0,2.0,95,0.00,,,0.00,VWS V14.01,2013-09-20 07:53:00,
2013-09-20 01:55:00,41.5,39.9,29.92,SE,143,0.0,0.0,94,0.00,,,0.00,VWS V14.01,2013-09-20 07:55:00,
2013-09-20 01:58:00,40.8,39.8,29.91,South,190,4.0,4.0,96,0.00,,,0.00,VWS V14.01,2013-09-20 07:58:00,
2013-09-20 02:00:00,41.5,39.9,29.92,SE,143,0.0,0.0,94,0.00,,,0.00,VWS V14.01,2013-09-20 08:00:00,
2013-09-20 02:03:00,41.8,40.8,29.91,SSW,204,4.0,6.0,96,0.00,,,0.00,VWS V14.01,2013-09-20 08:03:00,
2013-09-20 02:05:00,42.0,40.7,29.92,East,100,0.0,0.0,95,0.00,,,0.00,VWS V14.01,2013-09-20 08:05:00,
2013-09-20 02:08:00,41.9,40.8,29.91,SSW,207,0.0,1.0,96,0.00,,,0.00,VWS V14.01,2013-09-20 08:08:00,
2013-09-20 02:10:00,41.9,40.6,29.92,East,93,0.0,0.0,95,0.00,,,0.00,VWS V14.01,2013-09-20 08:10:00,
2013-09-20 02:13:00,41.9,40.8,29.91,South,170,0.0,0.0,96,0.00,,,0.00,VWS V14.01,2013-09-20 08:13:00,
2013-09-20 02:15:00,41.7,40.4,29.92,East,93,0.0,0.0,95,0.00,,,0.00,VWS V14.01,2013-09-20 08:15:00,
2013-09-20 02:18:00,41.7,40.7,29.91,South,170,0.0,0.0,96,0.00,,,0.00,VWS V14.01,2013-09-20 08:18:00,
2013-09-20 02:20:00,42.0,40.7,29.92,NNE,16,0.0,0.0,95,0.00,,,0.00,VWS V14.01,2013-09-20 08:20:00,
2013-09-20 02:23:00,41.4,40.1,29.91,South,170,0.0,0.0,95,0.00,,,0.00,VWS V14.01,2013-09-20 08:23:00,
2013-09-20 02:25:00,41.4,39.8,29.92,NNE,13,0.0,0.0,94,0.00,,,0.00,VWS V14.01,2013-09-20 08:25:00,
2013-09-20 02:28:00,41.3,40.2,29.91,South,170,0.0,0.0,96,0.00,,,0.00,VWS V14.01,2013-09-20 08:28:00,
2013-09-20 02:30:00,41.0,39.4,29.92,NNE,13,0.0,0.0,94,0.00,,,0.00,VWS V14.01,2013-09-20 08:30:00,
2013-09-20 02:33:00,41.3,40.2,29.91,South,170,0.0,0.0,96,0.00,,,0.00,VWS V14.01,2013-09-20 08:33:00,
2013-09-20 02:35:00,40.7,39.4,29.92,NNE,13,0.0,0.0,95,0.00,,,0.00,VWS V14.01,2013-09-20 08:35:00,
2013-09-20 02:38:00,40.9,39.6,29.90,SW,217,3.0,3.0,95,0.00,,,0.00,VWS V14.01,2013-09-20 08:38:00,
2013-09-20 02:40:00,40.7,39.4,29.92,NNE,13,0.0,0.0,95,0.00,,,0.00,VWS V14.01,2013-09-20 08:40:00,
2013-09-20 02:43:00,40.5,39.2,29.90,SW,216,3.0,3.0,95,0.00,,,0.00,VWS V14.01,2013-09-20 08:43:00,
2013-09-20 02:45:00,40.4,39.1,29.92,SSE,150,0.0,0.0,95,0.00,,,0.00,VWS V14.01,2013-09-20 08:45:00,
2013-09-20 02:48:00,40.3,39.0,29.90,SSW,212,0.0,2.0,95,0.00,,,0.00,VWS V14.01,2013-09-20 08:48:00,
2013-09-20 02:50:00,40.7,39.4,29.92,SSW,212,2.0,3.0,95,0.00,,,0.00,VWS V14.01,2013-09-20 08:50:00,
2013-09-20 02:53:00,40.0,38.7,29.90,NNE,16,1.0,2.0,95,0.00,,,0.00,VWS V14.01,2013-09-20 08:53:00,
2013-09-20 02:55:00,40.5,39.2,29.92,SE,138,1.0,3.0,95,0.00,,,0.00,VWS V14.01,2013-09-20 08:55:00,
2013-09-20 02:58:00,40.1,39.0,29.91,NNE,13,0.0,2.0,96,0.00,,,0.00,VWS V14.01,2013-09-20 08:58:00,
2013-09-20 03:00:00,41.2,40.2,29.91,SSW,200,5.0,5.0,96,0.00,,,0.00,VWS V14.01,2013-09-20 09:00:00,
2013-09-20 03:03:00,39.8,38.5,29.91,NNE,13,0.0,0.0,95,0.00,,,0.00,VWS V14.01,2013-09-20 09:03:00,
2013-09-20 03:05:00,42.0,40.9,29.91,SW,218,1.0,6.0,96,0.00,,,0.00,VWS V14.01,2013-09-20 09:05:00,
2013-09-20 03:08:00,40.4,39.3,29.90,West,281,1.0,1.0,96,0.00,,,0.00,VWS V14.01,2013-09-20 09:08:00,
2013-09-20 03:10:00,41.9,40.8,29.91,SSW,207,0.0,1.0,96,0.00,,,0.00,VWS V14.01,2013-09-20 09:10:00,
2013-09-20 03:13:00,40.8,39.8,29.90,West,270,0.0,0.0,96,0.00,,,0.00,VWS V14.01,2013-09-20 09:13:00,
2013-09-20 03:15:00,41.8,40.8,29.91,South,170,0.0,0.0,96,0.00,,,0.00,VWS V14.01,2013-09-20 09:15:00,
2013-09-20 03:18:00,41.1,40.3,29.90,WSW,257,0.0,0.0,97,0.00,,,0.00,VWS V14.01,2013-09-20 09:18:00,
2013-09-20 03:20:00,41.6,40.5,29.91,South,170,0.0,0.0,96,0.00,,,0.00,VWS V14.01,2013-09-20 09:20:00,
2013-09-20 03:23:00,40.7,39.7,29.90,West,262,0.0,0.0,96,0.00,,,0.00,VWS V14.01,2013-09-20 09:23:00,
2013-09-20 03:25:00,41.3,40.2,29.91,South,170,0.0,0.0,96,0.00,,,0.00,VWS V14.01,2013-09-20 09:25:00,
2013-09-20 03:28:00,40.4,39.3,29.90,West,262,0.0,0.0,96,0.00,,,0.00,VWS V14.01,2013-09-20 09:28:00,
2013-09-20 03:30:00,41.3,40.2,29.91,South,170,0.0,0.0,96,0.00,,,0.00,VWS V14.01,2013-09-20 09:30:00,
2013-09-20 03:33:00,40.5,39.5,29.90,West,262,0.0,0.0,96,0.00,,,0.00,VWS V14.01,2013-09-20 09:33:00,
2013-09-20 03:35:00,41.2,40.2,29.91,South,170,0.0,0.0,96,0.00,,,0.00,VWS V14.01,2013-09-20 09:35:00,
2013-09-20 03:38:00,39.8,38.8,29.90,SE,131,0.0,0.0,96,0.00,,,0.00,VWS V14.01,2013-09-20 09:38:00,
2013-09-20 03:40:00,40.8,39.5,29.90,SW,224,2.0,3.0,95,0.00,,,0.00,VWS V14.01,2013-09-20 09:40:00,
2013-09-20 03:43:00,38.8,37.5,29.90,SE,129,0.0,0.0,95,0.00,,,0.00,VWS V14.01,2013-09-20 09:43:00,
2013-09-20 03:45:00,40.4,39.1,29.90,SW,218,2.0,3.0,95,0.00,,,0.00,VWS V14.01,2013-09-20 09:45:00,
2013-09-20 03:48:00,38.7,37.7,29.90,SE,129,0.0,0.0,96,0.00,,,0.00,VWS V14.01,2013-09-20 09:48:00,
2013-09-20 03:50:00,40.2,38.9,29.91,SW,214,0.0,2.0,95,0.00,,,0.00,VWS V14.01,2013-09-20 09:50:00,
2013-09-20 03:53:00,38.8,37.8,29.90,SE,131,0.0,0.0,96,0.00,,,0.00,VWS V14.01,2013-09-20 09:53:00,
2013-09-20 03:55:00,40.2,39.2,29.91,NNE,13,2.0,2.0,96,0.00,,,0.00,VWS V14.01,2013-09-20 09:55:00,
2013-09-20 03:58:00,38.6,37.6,29.90,SE,134,0.0,0.0,96,0.00,,,0.00,VWS V14.01,2013-09-20 09:58:00,
2013-09-20 04:00:00,40.0,39.0,29.91,NNE,13,0.0,2.0,96,0.00,,,0.00,VWS V14.01,2013-09-20 10:00:00,
2013-09-20 04:03:00,38.3,37.3,29.89,SSE,149,0.0,0.0,96,0.00,,,0.00,VWS V14.01,2013-09-20 10:03:00,
2013-09-20 04:05:00,39.8,38.8,29.91,NNE,13,0.0,0.0,96,0.00,,,0.00,VWS V14.01,2013-09-20 10:05:00,
2013-09-20 04:08:00,38.3,37.3,29.89,SSE,149,0.0,0.0,96,0.00,,,0.00,VWS V14.01,2013-09-20 10:08:00,
2013-09-20 04:10:00,40.5,39.5,29.90,West,281,0.0,1.0,96,0.00,,,0.00,VWS V14.01,2013-09-20 10:10:00,
2013-09-20 04:13:00,37.9,36.9,29.90,SSE,149,0.0,0.0,96,0.00,,,0.00,VWS V14.01,2013-09-20 10:13:00,
2013-09-20 04:15:00,40.9,40.1,29.90,WSW,257,0.0,0.0,97,0.00,,,0.00,VWS V14.01,2013-09-20 10:15:00,
2013-09-20 04:18:00,38.3,37.3,29.89,SSE,149,0.0,0.0,96,0.00,,,0.00,VWS V14.01,2013-09-20 10:18:00,
2013-09-20 04:20:00,40.9,40.1,29.90,West,262,0.0,0.0,97,0.00,,,0.00,VWS V14.01,2013-09-20 10:20:00,
2013-09-20 04:23:00,38.7,37.7,29.89,East,93,2.0,2.0,96,0.00,,,0.00,VWS V14.01,2013-09-20 10:23:00,
2013-09-20 04:25:00,40.5,39.5,29.90,West,262,0.0,0.0,96,0.00,,,0.00,VWS V14.01,2013-09-20 10:25:00,
2013-09-20 04:28:00,37.9,36.9,29.89,ENE,78,0.0,3.0,96,0.00,,,0.00,VWS V14.01,2013-09-20 10:28:00,
2013-09-20 04:30:00,40.5,39.5,29.90,West,262,0.0,0.0,96,0.00,,,0.00,VWS V14.01,2013-09-20 10:30:00,
2013-09-20 04:33:00,37.9,36.9,29.89,ESE,113,0.0,0.0,96,0.00,,,0.00,VWS V14.01,2013-09-20 10:33:00,
2013-09-20 04:35:00,40.3,39.2,29.90,West,262,0.0,0.0,96,0.00,,,0.00,VWS V14.01,2013-09-20 10:35:00,
2013-09-20 04:38:00,37.7,36.7,29.89,ESE,113,0.0,0.0,96,0.00,,,0.00,VWS V14.01,2013-09-20 10:38:00,
2013-09-20 04:40:00,39.3,38.0,29.90,SE,131,0.0,0.0,95,0.00,,,0.00,VWS V14.01,2013-09-20 10:40:00,
2013-09-20 04:43:00,37.6,36.6,29.89,ENE,77,0.0,0.0,96,0.00,,,0.00,VWS V14.01,2013-09-20 10:43:00,
2013-09-20 04:45:00,38.7,37.4,29.90,SE,129,0.0,0.0,95,0.00,,,0.00,VWS V14.01,2013-09-20 10:45:00,
2013-09-20 04:48:00,37.5,36.5,29.89,ENE,77,0.0,0.0,96,0.00,,,0.00,VWS V14.01,2013-09-20 10:48:00,
2013-09-20 04:50:00,38.8,37.8,29.90,SE,129,0.0,0.0,96,0.00,,,0.00,VWS V14.01,2013-09-20 10:50:00,
2013-09-20 04:53:00,37.2,36.2,29.89,ENE,77,0.0,0.0,96,0.00,,,0.00,VWS V14.01,2013-09-20 10:53:00,
2013-09-20 04:55:00,38.7,37.7,29.90,SE,131,0.0,0.0,96,0.00,,,0.00,VWS V14.01,2013-09-20 10:55:00,
2013-09-20 04:58:00,37.4,36.4,29.89,ENE,77,0.0,0.0,96,0.00,,,0.00,VWS V14.01,2013-09-20 10:58:00,
2013-09-20 05:00:00,38.4,37.4,29.90,SSE,149,0.0,0.0,96,0.00,,,0.00,VWS V14.01,2013-09-20 11:00:00,
2013-09-20 05:03:00,37.4,36.4,29.89,ENE,76,0.0,0.0,96,0.00,,,0.00,VWS V14.01,2013-09-20 11:03:00,
2013-09-20 05:05:00,38.4,37.4,29.89,SSE,149,0.0,0.0,96,0.00,,,0.00,VWS V14.01,2013-09-20 11:05:00,
2013-09-20 05:08:00,37.4,36.4,29.89,ENE,77,0.0,0.0,96,0.00,,,0.00,VWS V14.01,2013-09-20 11:08:00,
2013-09-20 05:10:00,38.1,37.1,29.90,SSE,149,0.0,0.0,96,0.00,,,0.00,VWS V14.01,2013-09-20 11:10:00,
2013-09-20 05:13:00,37.5,36.5,29.88,NNE,18,0.0,0.0,96,0.00,,,0.00,VWS V14.01,2013-09-20 11:13:00,
2013-09-20 05:15:00,38.0,37.0,29.89,SSE,149,0.0,0.0,96,0.00,,,0.00,VWS V14.01,2013-09-20 11:15:00,
2013-09-20 05:18:00,37.6,36.6,29.88,NW,305,0.0,0.0,96,0.00,,,0.00,VWS V14.01,2013-09-20 11:18:00,
2013-09-20 05:20:00,38.6,37.6,29.89,SSE,149,0.0,0.0,96,0.00,,,0.00,VWS V14.01,2013-09-20 11:20:00,
2013-09-20 05:23:00,36.9,35.9,29.88,NW,304,0.0,0.0,96,0.00,,,0.00,VWS V14.01,2013-09-20 11:23:00,
2013-09-20 05:25:00,38.3,37.3,29.89,East,80,2.0,2.0,96,0.00,,,0.00,VWS V14.01,2013-09-20 11:25:00,
2013-09-20 05:28:00,36.9,35.9,29.88,NW,305,0.0,0.0,96,0.00,,,0.00,VWS V14.01,2013-09-20 11:28:00,
2013-09-20 05:30:00,37.8,36.8,29.89,East,97,0.0,3.0,96,0.00,,,0.00,VWS V14.01,2013-09-20 11:30:00,
2013-09-20 05:33:00,36.8,35.8,29.88,NW,305,0.0,0.0,96,0.00,,,0.00,VWS V14.01,2013-09-20 11:33:00,
2013-09-20 05:35:00,37.9,36.9,29.89,ESE,113,0.0,0.0,96,0.00,,,0.00,VWS V14.01,2013-09-20 11:35:00,
2013-09-20 05:38:00,36.6,35.6,29.88,NW,305,0.0,0.0,96,0.00,,,0.00,VWS V14.01,2013-09-20 11:38:00,
2013-09-20 05:40:00,37.6,36.6,29.89,ENE,75,0.0,0.0,96,0.00,,,0.00,VWS V14.01,2013-09-20 11:40:00,
2013-09-20 05:43:00,37.2,36.4,29.88,North,8,0.0,0.0,97,0.00,,,0.00,VWS V14.01,2013-09-20 11:43:00,
2013-09-20 05:45:00,37.6,36.6,29.89,ENE,76,0.0,0.0,96,0.00,,,0.00,VWS V14.01,2013-09-20 11:45:00,
2013-09-20 05:48:00,37.4,36.6,29.88,East,100,0.0,0.0,97,0.00,,,0.00,VWS V14.01,2013-09-20 11:48:00,
2013-09-20 05:50:00,37.4,36.4,29.89,ENE,77,0.0,0.0,96,0.00,,,0.00,VWS V14.01,2013-09-20 11:50:00,
2013-09-20 05:53:00,37.5,36.7,29.87,East,100,0.0,0.0,97,0.00,,,0.00,VWS V14.01,2013-09-20 11:53:00,
2013-09-20 05:58:00,37.9,37.1,29.87,East,100,0.0,0.0,97,0.00,,,0.00,VWS V14.01,2013-09-20 11:58:00,
2013-09-20 06:03:00,37.8,37.0,29.87,East,100,0.0,0.0,97,0.00,,,0.00,VWS V14.01,2013-09-20 12:03:00,
2013-09-20 06:05:00,37.4,36.4,29.89,ENE,77,0.0,0.0,96,0.00,,,0.00,VWS V14.01,2013-09-20 12:05:00,
2013-09-20 06:08:00,37.5,36.7,29.87,SE,138,0.0,0.0,97,0.00,,,0.00,VWS V14.01,2013-09-20 12:08:00,
2013-09-20 06:10:00,37.5,36.5,29.89,ENE,77,0.0,0.0,96,0.00,,,0.00,VWS V14.01,2013-09-20 12:10:00,
2013-09-20 06:13:00,36.6,35.6,29.87,ESE,121,0.0,0.0,96,0.00,,,0.00,VWS V14.01,2013-09-20 12:13:00,
2013-09-20 06:15:00,37.4,36.4,29.88,NNE,18,0.0,0.0,96,0.00,,,0.00,VWS V14.01,2013-09-20 12:15:00,
2013-09-20 06:18:00,36.3,35.3,29.87,ESE,122,0.0,0.0,96,0.00,,,0.00,VWS V14.01,2013-09-20 12:18:00,
2013-09-20 06:20:00,37.6,36.6,29.88,NW,304,0.0,0.0,96,0.00,,,0.00,VWS V14.01,2013-09-20 12:20:00,
2013-09-20 06:23:00,36.2,35.2,29.87,ESE,123,0.0,0.0,96,0.00,,,0.00,VWS V14.01,2013-09-20 12:23:00,
2013-09-20 06:25:00,36.8,35.8,29.88,NW,305,0.0,0.0,96,0.00,,,0.00,VWS V14.01,2013-09-20 12:25:00,
2013-09-20 06:28:00,36.5,35.5,29.87,ESE,122,0.0,0.0,96,0.00,,,0.00,VWS V14.01,2013-09-20 12:28:00,
2013-09-20 06:30:00,36.9,35.9,29.88,NW,305,0.0,0.0,96,0.00,,,0.00,VWS V14.01,2013-09-20 12:30:00,
2013-09-20 06:33:00,36.7,35.9,29.87,ESE,122,0.0,0.0,97,0.00,,,0.00,VWS V14.01,2013-09-20 12:33:00,
2013-09-20 06:35:00,36.7,35.7,29.88,NW,305,0.0,0.0,96,0.00,,,0.00,VWS V14.01,2013-09-20 12:35:00,
2013-09-20 06:38:00,36.6,35.8,29.87,ESE,122,0.0,0.0,97,0.00,,,0.00,VWS V14.01,2013-09-20 12:38:00,
2013-09-20 06:40:00,36.7,35.7,29.88,NNW,346,0.0,0.0,96,0.00,,,0.00,VWS V14.01,2013-09-20 12:40:00,
2013-09-20 06:43:00,36.6,35.8,29.87,ESE,122,0.0,0.0,97,0.00,,,0.00,VWS V14.01,2013-09-20 12:43:00,
2013-09-20 06:45:00,37.3,36.5,29.88,East,100,0.0,0.0,97,0.00,,,0.00,VWS V14.01,2013-09-20 12:45:00,
2013-09-20 06:48:00,37.1,36.3,29.87,ESE,122,0.0,0.0,97,0.00,,,0.00,VWS V14.01,2013-09-20 12:48:00,
2013-09-20 06:50:00,37.4,36.6,29.88,East,100,0.0,0.0,97,0.00,,,0.00,VWS V14.01,2013-09-20 12:50:00,
2013-09-20 06:53:00,37.0,36.2,29.87,ESE,122,0.0,0.0,97,0.00,,,0.00,VWS V14.01,2013-09-20 12:53:00,
2013-09-20 06:55:00,37.7,36.9,29.88,East,100,0.0,0.0,97,0.00,,,0.00,VWS V14.01,2013-09-20 12:55:00,
2013-09-20 06:58:00,36.8,36.0,29.87,ESE,122,0.0,0.0,97,0.00,,,0.00,VWS V14.01,2013-09-20 12:58:00,
2013-09-20 07:00:00,37.9,37.1,29.88,East,100,0.0,0.0,97,0.00,,,0.00,VWS V14.01,2013-09-20 13:00:00,
2013-09-20 07:03:00,37.3,36.5,29.87,South,170,0.0,0.0,97,0.00,,,0.00,VWS V14.01,2013-09-20 13:03:00,
2013-09-20 07:05:00,37.8,37.0,29.87,East,100,0.0,0.0,97,0.00,,,0.00,VWS V14.01,2013-09-20 13:05:00,
2013-09-20 07:08:00,37.3,36.5,29.87,SSE,158,0.0,0.0,97,0.00,,,0.00,VWS V14.01,2013-09-20 13:08:00,
2013-09-20 07:10:00,37.1,36.3,29.87,SE,139,0.0,0.0,97,0.00,,,0.00,VWS V14.01,2013-09-20 13:10:00,
2013-09-20 07:13:00,36.6,35.8,29.87,SE,142,2.0,2.0,97,0.00,,,0.00,VWS V14.01,2013-09-20 13:13:00,
2013-09-20 07:15:00,36.5,35.5,29.87,ESE,122,0.0,0.0,96,0.00,,,0.00,VWS V14.01,2013-09-20 13:15:00,
2013-09-20 07:18:00,36.5,35.7,29.87,SE,134,0.0,1.0,97,0.00,,,0.00,VWS V14.01,2013-09-20 13:18:00,
2013-09-20 07:20:00,36.3,35.3,29.87,ESE,122,0.0,0.0,96,0.00,,,0.00,VWS V14.01,2013-09-20 13:20:00,
2013-09-20 07:23:00,36.5,35.7,29.87,NW,326,0.0,1.0,97,0.00,,,0.00,VWS V14.01,2013-09-20 13:23:00,
2013-09-20 07:25:00,36.3,35.3,29.87,ESE,122,0.0,0.0,96,0.00,,,0.00,VWS V14.01,2013-09-20 13:25:00,
2013-09-20 07:28:00,37.2,36.4,29.87,NW,326,0.0,0.0,97,0.00,,,0.00,VWS V14.01,2013-09-20 13:28:00,
2013-09-20 07:30:00,36.5,35.7,29.87,ESE,122,0.0,0.0,97,0.00,,,0.00,VWS V14.01,2013-09-20 13:30:00,
2013-09-20 07:33:00,37.1,36.3,29.87,NW,326,0.0,0.0,97,0.00,,,0.00,VWS V14.01,2013-09-20 13:33:00,
2013-09-20 07:35:00,36.7,35.9,29.87,ESE,122,0.0,0.0,97,0.00,,,0.00,VWS V14.01,2013-09-20 13:35:00,
2013-09-20 07:38:00,36.9,36.1,29.87,NW,326,0.0,0.0,97,0.00,,,0.00,VWS V14.01,2013-09-20 13:38:00,
2013-09-20 07:40:00,36.5,35.7,29.87,ESE,123,0.0,0.0,97,0.00,,,0.00,VWS V14.01,2013-09-20 13:40:00,
2013-09-20 07:43:00,37.1,36.3,29.87,NW,326,0.0,1.0,97,0.00,,,0.00,VWS V14.01,2013-09-20 13:43:00,
2013-09-20 07:45:00,36.8,36.0,29.87,ESE,122,0.0,0.0,97,0.00,,,0.00,VWS V14.01,2013-09-20 13:45:00,
2013-09-20 07:48:00,37.6,36.8,29.87,NW,322,0.0,1.0,97,0.00,,,0.00,VWS V14.01,2013-09-20 13:48:00,
2013-09-20 07:50:00,37.1,36.3,29.87,ESE,122,0.0,0.0,97,0.00,,,0.00,VWS V14.01,2013-09-20 13:50:00,
2013-09-20 07:53:00,38.0,37.2,29.87,NW,325,0.0,0.0,97,0.00,,,0.00,VWS V14.01,2013-09-20 13:53:00,
2013-09-20 07:55:00,36.9,36.1,29.87,ESE,122,0.0,0.0,97,0.00,,,0.00,VWS V14.01,2013-09-20 13:55:00,
2013-09-20 07:58:00,38.3,37.5,29.87,NW,325,0.0,0.0,97,0.00,,,0.00,VWS V14.01,2013-09-20 13:58:00,
2013-09-20 08:00:00,36.9,36.1,29.87,ESE,122,0.0,0.0,97,0.00,,,0.00,VWS V14.01,2013-09-20 14:00:00,
2013-09-20 08:03:00,38.6,37.8,29.87,NW,325,0.0,0.0,97,0.00,,,0.00,VWS V14.01,2013-09-20 14:03:00,
2013-09-20 08:05:00,37.4,36.6,29.87,South,170,0.0,0.0,97,0.00,,,0.00,VWS V14.01,2013-09-20 14:05:00,
2013-09-20 08:08:00,38.9,37.9,29.87,NW,325,0.0,0.0,96,0.00,,,0.00,VWS V14.01,2013-09-20 14:08:00,
2013-09-20 08:10:00,37.0,36.2,29.87,SE,142,2.0,2.0,97,0.00,,,0.00,VWS V14.01,2013-09-20 14:10:00,
2013-09-20 08:13:00,39.4,38.4,29.87,NW,325,0.0,0.0,96,0.00,,,0.00,VWS V14.01,2013-09-20 14:13:00,
2013-09-20 08:15:00,36.6,35.8,29.87,SE,134,1.0,2.0,97,0.00,,,0.00,VWS V14.01,2013-09-20 14:15:00,
2013-09-20 08:18:00,39.9,38.8,29.87,NW,325,0.0,0.0,96,0.00,,,0.00,VWS V14.01,2013-09-20 14:18:00,
2013-09-20 08:20:00,36.5,35.7,29.87,NW,326,1.0,2.0,97,0.00,,,0.00,VWS V14.01,2013-09-20 14:20:00,
2013-09-20 08:23:00,40.4,39.3,29.87,NE,34,0.0,0.0,96,0.00,,,0.00,VWS V14.01,2013-09-20 14:23:00,
2013-09-20 08:25:00,36.8,36.0,29.87,NW,326,0.0,1.0,97,0.00,,,0.00,VWS V14.01,2013-09-20 14:25:00,
2013-09-20 08:28:00,41.1,40.0,29.86,NE,34,0.0,0.0,96,0.00,,,0.00,VWS V14.01,2013-09-20 14:28:00,
2013-09-20 08:30:00,37.2,36.4,29.87,NW,326,0.0,0.0,97,0.00,,,0.00,VWS V14.01,2013-09-20 14:30:00,
2013-09-20 08:33:00,41.7,40.7,29.86,SE,125,0.0,1.0,96,0.00,,,0.00,VWS V14.01,2013-09-20 14:33:00,
2013-09-20 08:35:00,37.1,36.3,29.87,NW,326,0.0,0.0,97,0.00,,,0.00,VWS V14.01,2013-09-20 14:35:00,
2013-09-20 08:38:00,42.7,41.6,29.86,SSE,149,0.0,0.0,96,0.00,,,0.00,VWS V14.01,2013-09-20 14:38:00,
2013-09-20 08:40:00,36.8,36.0,29.87,NW,326,0.0,0.0,97,0.00,,,0.00,VWS V14.01,2013-09-20 14:40:00,
2013-09-20 08:43:00,43.6,42.5,29.86,SW,231,0.0,0.0,96,0.00,,,0.00,VWS V14.01,2013-09-20 14:43:00,
2013-09-20 08:45:00,37.3,36.5,29.87,NW,326,0.0,1.0,97,0.00,,,0.00,VWS V14.01,2013-09-20 14:45:00,
2013-09-20 08:48:00,43.9,42.6,29.86,SW,236,2.0,2.0,95,0.00,,,0.00,VWS V14.01,2013-09-20 14:48:00,
2013-09-20 08:50:00,37.8,37.0,29.87,NW,324,0.0,1.0,97,0.00,,,0.00,VWS V14.01,2013-09-20 14:50:00,
2013-09-20 08:53:00,44.4,42.8,29.86,West,280,2.0,4.0,94,0.00,,,0.00,VWS V14.01,2013-09-20 14:53:00,
2013-09-20 08:55:00,38.3,37.5,29.87,NW,325,0.0,0.0,97,0.00,,,0.00,VWS V14.01,2013-09-20 14:55:00,
2013-09-20 08:58:00,44.7,42.8,29.86,WSW,245,4.0,5.0,93,0.00,,,0.00,VWS V14.01,2013-09-20 14:58:00,
2013-09-20 09:00:00,38.4,37.6,29.87,NW,325,0.0,0.0,97,0.00,,,0.00,VWS V14.01,2013-09-20 15:00:00,
2013-09-20 09:03:00,44.8,42.6,29.86,WSW,239,4.0,7.0,92,0.00,,,0.00,VWS V14.01,2013-09-20 15:03:00,
2013-09-20 09:05:00,38.6,37.8,29.87,NW,325,0.0,0.0,97,0.00,,,0.00,VWS V14.01,2013-09-20 15:05:00,
2013-09-20 09:08:00,45.4,42.9,29.86,WSW,241,4.0,5.0,91,0.00,,,0.00,VWS V14.01,2013-09-20 15:08:00,
2013-09-20 09:10:00,39.2,38.2,29.87,NW,325,0.0,0.0,96,0.00,,,0.00,VWS V14.01,2013-09-20 15:10:00,
2013-09-20 09:13:00,45.6,42.5,29.86,WSW,240,6.0,8.0,89,0.00,,,0.00,VWS V14.01,2013-09-20 15:13:00,
2013-09-20 09:15:00,39.5,38.5,29.87,NW,325,0.0,0.0,96,0.00,,,0.00,VWS V14.01,2013-09-20 15:15:00,
2013-09-20 09:18:00,45.9,42.8,29.86,SSW,209,3.0,7.0,89,0.00,,,0.00,VWS V14.01,2013-09-20 15:18:00,
2013-09-20 09:20:00,40.1,39.0,29.87,NW,325,0.0,0.0,96,0.00,,,0.00,VWS V14.01,2013-09-20 15:20:00,
2013-09-20 09:23:00,46.2,42.8,29.85,West,269,5.0,6.0,88,0.00,,,0.00,VWS V14.01,2013-09-20 15:23:00,
2013-09-20 09:25:00,40.5,39.5,29.87,NE,34,0.0,0.0,96,0.00,,,0.00,VWS V14.01,2013-09-20 15:25:00,
2013-09-20 09:28:00,46.5,42.8,29.86,SW,232,5.0,7.0,87,0.00,,,0.00,VWS V14.01,2013-09-20 15:28:00,
2013-09-20 09:30:00,41.6,40.5,29.86,ESE,121,0.0,0.0,96,0.00,,,0.00,VWS V14.01,2013-09-20 15:30:00,
2013-09-20 09:33:00,46.8,43.1,29.85,WSW,250,2.0,9.0,87,0.00,,,0.00,VWS V14.01,2013-09-20 15:33:00,
2013-09-20 09:35:00,42.0,40.9,29.86,SE,126,0.0,1.0,96,0.00,,,0.00,VWS V14.01,2013-09-20 15:35:00,
2013-09-20 09:38:00,47.0,43.3,29.85,SSW,202,4.0,6.0,87,0.00,,,0.00,VWS V14.01,2013-09-20 15:38:00,
2013-09-20 09:40:00,43.1,42.0,29.86,SSW,207,0.0,0.0,96,0.00,,,0.00,VWS V14.01,2013-09-20 15:40:00,
2013-09-20 09:43:00,47.4,43.4,29.85,SW,218,5.0,8.0,86,0.00,,,0.00,VWS V14.01,2013-09-20 15:43:00,
2013-09-20 09:45:00,43.7,42.6,29.86,SSW,212,0.0,0.0,96,0.00,,,0.00,VWS V14.01,2013-09-20 15:45:00,
2013-09-20 09:48:00,47.5,43.2,29.85,WSW,249,3.0,6.0,85,0.00,,,0.00,VWS V14.01,2013-09-20 15:48:00,
2013-09-20 09:50:00,44.1,42.8,29.86,WSW,252,2.0,3.0,95,0.00,,,0.00,VWS V14.01,2013-09-20 15:50:00,
2013-09-20 09:53:00,47.7,43.1,29.85,WSW,238,3.0,6.0,84,0.00,,,0.00,VWS V14.01,2013-09-20 15:53:00,
2013-09-20 09:55:00,44.6,43.0,29.86,WSW,257,4.0,5.0,94,0.00,,,0.00,VWS V14.01,2013-09-20 15:55:00,
2013-09-20 09:58:00,48.0,43.1,29.85,SW,229,3.0,6.0,83,0.00,,,0.00,VWS V14.01,2013-09-20 15:58:00,
2013-09-20 10:00:00,44.7,42.8,29.86,West,262,4.0,7.0,93,0.00,,,0.00,VWS V14.01,2013-09-20 16:00:00,
2013-09-20 10:03:00,48.4,43.5,29.85,SW,232,1.0,4.0,83,0.00,,,0.00,VWS V14.01,2013-09-20 16:03:00,
2013-09-20 10:05:00,45.1,42.9,29.86,WSW,246,5.0,7.0,92,0.00,,,0.00,VWS V14.01,2013-09-20 16:05:00,
2013-09-20 10:08:00,49.0,44.1,29.85,SW,221,3.0,5.0,83,0.00,,,0.00,VWS V14.01,2013-09-20 16:08:00,
2013-09-20 10:10:00,45.5,43.0,29.86,SW,236,4.0,6.0,91,0.00,,,0.00,VWS V14.01,2013-09-20 16:10:00,
2013-09-20 10:13:00,49.3,44.0,29.85,SW,232,1.0,5.0,82,0.00,,,0.00,VWS V14.01,2013-09-20 16:13:00,
2013-09-20 10:15:00,45.7,42.7,29.86,WSW,239,6.0,8.0,89,0.00,,,0.00,VWS V14.01,2013-09-20 16:15:00,
2013-09-20 10:18:00,49.5,43.6,29.84,SSW,208,2.0,6.0,80,0.00,,,0.00,VWS V14.01,2013-09-20 16:18:00,
2013-09-20 10:20:00,46.1,43.0,29.86,West,260,3.0,7.0,89,0.00,,,0.00,VWS V14.01,2013-09-20 16:20:00,
2013-09-20 10:23:00,50.0,44.4,29.84,WSW,245,5.0,5.0,81,0.00,,,0.00,VWS V14.01,2013-09-20 16:23:00,
2013-09-20 10:25:00,46.4,43.3,29.86,SW,236,6.0,7.0,89,0.00,,,0.00,VWS V14.01,2013-09-20 16:25:00,
2013-09-20 10:28:00,50.4,45.1,29.84,SW,229,3.0,5.0,82,0.00,,,0.00,VWS V14.01,2013-09-20 16:28:00,
2013-09-20 10:30:00,46.6,42.9,29.85,WSW,248,6.0,7.0,87,0.00,,,0.00,VWS V14.01,2013-09-20 16:30:00,
2013-09-20 10:33:00,50.7,45.1,29.84,South,174,3.0,5.0,81,0.00,,,0.00,VWS V14.01,2013-09-20 16:33:00,
2013-09-20 10:35:00,46.8,42.8,29.85,WSW,238,6.0,9.0,86,0.00,,,0.00,VWS V14.01,2013-09-20 16:35:00,
2013-09-20 10:38:00,50.8,44.5,29.83,South,190,3.0,5.0,79,0.00,,,0.00,VWS V14.01,2013-09-20 16:38:00,
2013-09-20 10:40:00,47.2,42.9,29.85,South,173,4.0,8.0,85,0.00,,,0.00,VWS V14.01,2013-09-20 16:40:00,
2013-09-20 10:43:00,51.0,43.7,29.83,West,280,5.0,6.0,76,0.00,,,0.00,VWS V14.01,2013-09-20 16:43:00,
2013-09-20 10:45:00,47.4,43.1,29.85,South,191,4.0,8.0,85,0.00,,,0.00,VWS V14.01,2013-09-20 16:45:00,
2013-09-20 10:48:00,51.0,44.4,29.83,SE,134,2.0,4.0,78,0.00,,,0.00,VWS V14.01,2013-09-20 16:48:00,
2013-09-20 10:50:00,47.6,43.6,29.85,SW,235,5.0,6.0,86,0.00,,,0.00,VWS V14.01,2013-09-20 16:50:00,
2013-09-20 10:53:00,51.5,44.9,29.83,SW,226,6.0,6.0,78,0.00,,,0.00,VWS V14.01,2013-09-20 16:53:00,
2013-09-20 10:55:00,47.9,43.6,29.85,SW,224,3.0,6.0,85,0.00,,,0.00,VWS V14.01,2013-09-20 16:55:00,
2013-09-20 10:58:00,51.7,44.0,29.83,West,273,4.0,8.0,75,0.00,,,0.00,VWS V14.01,2013-09-20 16:58:00,
2013-09-20 11:00:00,48.1,43.5,29.85,SW,214,4.0,6.0,84,0.00,,,0.00,VWS V14.01,2013-09-20 17:00:00,
2013-09-20 11:03:00,51.9,44.6,29.83,SW,229,4.0,7.0,76,0.00,,,0.00,VWS V14.01,2013-09-20 17:03:00,
2013-09-20 11:05:00,48.6,43.7,29.85,SW,219,5.0,5.0,83,0.00,,,0.00,VWS V14.01,2013-09-20 17:05:00,
2013-09-20 11:08:00,52.3,44.6,29.83,WSW,252,0.0,4.0,75,0.00,,,0.00,VWS V14.01,2013-09-20 17:08:00,
2013-09-20 11:10:00,49.1,43.8,29.85,South,179,3.0,5.0,82,0.00,,,0.00,VWS V14.01,2013-09-20 17:10:00,
2013-09-20 11:13:00,52.9,44.5,29.82,WNW,284,4.0,8.0,73,0.00,,,0.00,VWS V14.01,2013-09-20 17:13:00,
2013-09-20 11:15:00,49.5,44.2,29.84,WSW,255,4.0,8.0,82,0.00,,,0.00,VWS V14.01,2013-09-20 17:15:00,
2013-09-20 11:18:00,53.2,44.8,29.82,WSW,245,2.0,6.0,73,0.00,,,0.00,VWS V14.01,2013-09-20 17:18:00,
2013-09-20 11:20:00,49.6,44.0,29.84,SW,233,1.0,6.0,81,0.00,,,0.00,VWS V14.01,2013-09-20 17:20:00,
2013-09-20 11:23:00,53.7,45.3,29.82,SSW,208,1.0,3.0,73,0.00,,,0.00,VWS V14.01,2013-09-20 17:23:00,
2013-09-20 11:25:00,50.0,43.8,29.84,SSW,193,4.0,6.0,79,0.00,,,0.00,VWS V14.01,2013-09-20 17:25:00,
2013-09-20 11:28:00,54.5,45.7,29.82,SW,231,4.0,6.0,72,0.00,,,0.00,VWS V14.01,2013-09-20 17:28:00,
2013-09-20 11:30:00,50.5,44.6,29.84,WSW,243,5.0,5.0,80,0.00,,,0.00,VWS V14.01,2013-09-20 17:30:00,
2013-09-20 11:33:00,54.5,44.9,29.81,WNW,290,1.0,6.0,70,0.00,,,0.00,VWS V14.01,2013-09-20 17:33:00,
2013-09-20 11:35:00,50.7,44.1,29.84,SSW,195,4.0,6.0,78,0.00,,,0.00,VWS V14.01,2013-09-20 17:35:00,
2013-09-20 11:38:00,54.5,45.7,29.81,WNW,283,6.0,6.0,72,0.00,,,0.00,VWS V14.01,2013-09-20 17:38:00,
2013-09-20 11:40:00,51.0,44.7,29.83,West,267,2.0,6.0,79,0.00,,,0.00,VWS V14.01,2013-09-20 17:40:00,
2013-09-20 11:43:00,55.0,45.8,29.81,SW,229,1.0,3.0,71,0.00,,,0.00,VWS V14.01,2013-09-20 17:43:00,
2013-09-20 11:45:00,50.9,43.6,29.83,West,264,1.0,6.0,76,0.00,,,0.00,VWS V14.01,2013-09-20 17:45:00,
2013-09-20 11:48:00,56.1,46.5,29.81,South,180,2.0,6.0,70,0.00,,,0.00,VWS V14.01,2013-09-20 17:48:00,
2013-09-20 11:50:00,51.2,44.6,29.83,East,93,0.0,4.0,78,0.00,,,0.00,VWS V14.01,2013-09-20 17:50:00,
2013-09-20 11:53:00,56.5,46.5,29.80,SSW,200,3.0,6.0,69,0.00,,,0.00,VWS V14.01,2013-09-20 17:53:00,
2013-09-20 11:55:00,51.6,44.6,29.83,West,269,1.0,6.0,77,0.00,,,0.00,VWS V14.01,2013-09-20 17:55:00,
2013-09-20 11:58:00,56.6,45.8,29.80,ESE,110,1.0,4.0,67,0.00,,,0.00,VWS V14.01,2013-09-20 17:58:00,
2013-09-20 12:00:00,51.8,44.1,29.83,West,277,3.0,8.0,75,0.00,,,0.00,VWS V14.01,2013-09-20 18:00:00,
2013-09-20 12:03:00,57.1,46.7,29.80,ESE,114,2.0,2.0,68,0.00,,,0.00,VWS V14.01,2013-09-20 18:03:00,
2013-09-20 12:05:00,52.0,44.3,29.83,South,179,2.0,7.0,75,0.00,,,0.00,VWS V14.01,2013-09-20 18:05:00,
2013-09-20 12:08:00,58.0,47.1,29.80,SW,221,3.0,3.0,67,0.00,,,0.00,VWS V14.01,2013-09-20 18:08:00,
2013-09-20 12:10:00,52.6,45.3,29.82,WSW,257,5.0,5.0,76,0.00,,,0.00,VWS V14.01,2013-09-20 18:10:00,
2013-09-20 12:14:00,58.1,46.4,29.79,SW,219,3.0,5.0,65,0.00,,,0.00,VWS V14.01,2013-09-20 18:14:00,
2013-09-20 12:15:00,52.9,44.8,29.82,West,263,3.0,8.0,74,0.00,,,0.00,VWS V14.01,2013-09-20 18:15:00,
2013-09-20 12:19:00,57.8,46.5,29.79,SE,142,0.0,4.0,66,0.00,,,0.00,VWS V14.01,2013-09-20 18:19:00,
2013-09-20 12:20:00,53.3,44.9,29.82,ESE,120,2.0,6.0,73,0.00,,,0.00,VWS V14.01,2013-09-20 18:20:00,
2013-09-20 12:24:00,58.3,46.2,29.78,SSE,148,2.0,5.0,64,0.00,,,0.00,VWS V14.01,2013-09-20 18:24:00,
2013-09-20 12:25:00,53.9,45.8,29.82,South,186,1.0,3.0,74,0.00,,,0.00,VWS V14.01,2013-09-20 18:25:00,
2013-09-20 12:29:00,58.8,45.8,29.78,SSW,205,4.0,5.0,62,0.00,,,0.00,VWS V14.01,2013-09-20 18:29:00,
2013-09-20 12:30:00,54.7,45.5,29.82,West,263,3.0,8.0,71,0.00,,,0.00,VWS V14.01,2013-09-20 18:30:00,
2013-09-20 12:34:00,59.3,45.9,29.78,East,92,1.0,4.0,61,0.00,,,0.00,VWS V14.01,2013-09-20 18:34:00,
2013-09-20 12:35:00,54.4,45.2,29.81,WNW,291,4.0,6.0,71,0.00,,,0.00,VWS V14.01,2013-09-20 18:35:00,
2013-09-20 12:39:00,59.3,45.4,29.78,WSW,238,2.0,5.0,60,0.00,,,0.00,VWS V14.01,2013-09-20 18:39:00,
2013-09-20 12:40:00,54.7,45.9,29.81,SW,229,3.0,7.0,72,0.00,,,0.00,VWS V14.01,2013-09-20 18:40:00,
2013-09-20 12:44:00,59.6,45.7,29.77,SSE,150,3.0,5.0,60,0.00,,,0.00,VWS V14.01,2013-09-20 18:44:00,
2013-09-20 12:45:00,55.2,46.7,29.81,SSE,160,1.0,3.0,73,0.00,,,0.00,VWS V14.01,2013-09-20 18:45:00,
2013-09-20 12:49:00,60.2,46.3,29.77,East,85,1.0,5.0,60,0.00,,,0.00,VWS V14.01,2013-09-20 18:49:00,
2013-09-20 12:50:00,56.3,47.0,29.81,South,184,3.0,6.0,71,0.00,,,0.00,VWS V14.01,2013-09-20 18:50:00,
2013-09-20 12:54:00,60.5,45.7,29.77,WSW,238,2.0,5.0,58,0.00,,,0.00,VWS V14.01,2013-09-20 18:54:00,
2013-09-20 12:55:00,56.6,46.6,29.80,WSW,252,2.0,6.0,69,0.00,,,0.00,VWS V14.01,2013-09-20 18:55:00,
2013-09-20 12:59:00,60.4,46.0,29.77,East,96,2.0,5.0,59,0.00,,,0.00,VWS V14.01,2013-09-20 18:59:00,
2013-09-20 13:00:00,56.6,45.4,29.80,ENE,65,2.0,4.0,66,0.00,,,0.00,VWS V14.01,2013-09-20 19:00:00,
2013-09-20 13:04:00,60.3,45.5,29.76,East,84,2.0,4.0,58,0.00,,,0.00,VWS V14.01,2013-09-20 19:04:00,
2013-09-20 13:05:00,57.3,46.8,29.80,SE,139,2.0,3.0,68,0.00,,,0.00,VWS V14.01,2013-09-20 19:05:00,
2013-09-20 13:09:00,60.6,45.8,29.76,East,91,2.0,4.0,58,0.00,,,0.00,VWS V14.01,2013-09-20 19:09:00,
2013-09-20 13:10:00,58.2,46.9,29.79,SE,128,1.0,3.0,66,0.00,,,0.00,VWS V14.01,2013-09-20 19:10:00,
2013-09-20 13:14:00,61.2,45.4,29.76,SW,233,3.0,6.0,56,0.00,,,0.00,VWS V14.01,2013-09-20 19:14:00,
2013-09-20 13:15:00,58.0,45.9,29.79,SW,226,2.0,5.0,64,0.00,,,0.00,VWS V14.01,2013-09-20 19:15:00,
2013-09-20 13:19:00,61.7,46.3,29.76,SSE,150,1.0,4.0,57,0.00,,,0.00,VWS V14.01,2013-09-20 19:19:00,
2013-09-20 13:20:00,57.9,46.2,29.79,South,169,2.0,4.0,65,0.00,,,0.00,VWS V14.01,2013-09-20 19:20:00,
2013-09-20 13:24:00,62.2,44.9,29.75,SSE,149,0.0,3.0,53,0.00,,,0.00,VWS V14.01,2013-09-20 19:24:00,
2013-09-20 13:25:00,58.4,46.7,29.78,SE,146,1.0,5.0,65,0.00,,,0.00,VWS V14.01,2013-09-20 19:25:00,
2013-09-20 13:29:00,62.8,44.9,29.75,ESE,103,2.0,4.0,52,0.00,,,0.00,VWS V14.01,2013-09-20 19:29:00,
2013-09-20 13:30:00,58.9,46.3,29.78,SSW,193,3.0,5.0,63,0.00,,,0.00,VWS V14.01,2013-09-20 19:30:00,
2013-09-20 13:34:00,62.9,46.0,29.75,SE,134,1.0,4.0,54,0.00,,,0.00,VWS V14.01,2013-09-20 19:34:00,
2013-09-20 13:35:00,59.3,45.9,29.78,East,79,3.0,4.0,61,0.00,,,0.00,VWS V14.01,2013-09-20 19:35:00,
2013-09-20 13:39:00,63.1,45.2,29.75,ESE,104,0.0,3.0,52,0.00,,,0.00,VWS V14.01,2013-09-20 19:39:00,
2013-09-20 13:40:00,59.4,46.0,29.77,WSW,257,2.0,5.0,61,0.00,,,0.00,VWS V14.01,2013-09-20 19:40:00,
2013-09-20 13:44:00,63.4,45.5,29.74,NNE,12,2.0,4.0,52,0.00,,,0.00,VWS V14.01,2013-09-20 19:44:00,
2013-09-20 13:45:00,59.6,46.2,29.77,ESE,120,1.0,5.0,61,0.00,,,0.00,VWS V14.01,2013-09-20 19:45:00,
2013-09-20 13:49:00,63.7,47.2,29.74,South,169,1.0,3.0,55,0.00,,,0.00,VWS V14.01,2013-09-20 19:49:00,
2013-09-20 13:50:00,60.4,46.5,29.77,SE,134,1.0,5.0,60,0.00,,,0.00,VWS V14.01,2013-09-20 19:50:00,
2013-09-20 13:54:00,64.3,43.7,29.73,WNW,301,3.0,3.0,47,0.00,,,0.00,VWS V14.01,2013-09-20 19:54:00,
2013-09-20 13:55:00,60.4,45.6,29.77,SSE,148,3.0,5.0,58,0.00,,,0.00,VWS V14.01,2013-09-20 19:55:00,
2013-09-20 13:59:00,64.3,43.1,29.73,ESE,103,0.0,7.0,46,0.00,,,0.00,VWS V14.01,2013-09-20 19:59:00,
2013-09-20 14:00:00,60.5,45.7,29.77,ESE,122,3.0,5.0,58,0.00,,,0.00,VWS V14.01,2013-09-20 20:00:00,
2013-09-20 14:04:00,64.4,43.8,29.73,WNW,296,3.0,6.0,47,0.00,,,0.00,VWS V14.01,2013-09-20 20:04:00,
2013-09-20 14:05:00,60.3,45.0,29.76,ESE,105,1.0,4.0,57,0.00,,,0.00,VWS V14.01,2013-09-20 20:05:00,
2013-09-20 14:09:00,64.5,44.4,29.72,NNE,20,3.0,7.0,48,0.00,,,0.00,VWS V14.01,2013-09-20 20:09:00,
2013-09-20 14:10:00,60.7,45.8,29.76,ESE,110,0.0,4.0,58,0.00,,,0.00,VWS V14.01,2013-09-20 20:10:00,
2013-09-20 14:14:00,64.7,44.0,29.72,NE,50,2.0,6.0,47,0.00,,,0.00,VWS V14.01,2013-09-20 20:14:00,
2013-09-20 14:19:00,64.8,45.7,29.72,NNW,333,0.0,4.0,50,0.00,,,0.00,VWS V14.01,2013-09-20 20:19:00,
2013-09-20 14:20:00,61.8,46.0,29.76,SE,138,3.0,4.0,56,0.00,,,0.00,VWS V14.01,2013-09-20 20:20:00,
2013-09-20 14:24:00,65.3,44.6,29.71,NE,53,2.0,6.0,47,0.00,,,0.00,VWS V14.01,2013-09-20 20:24:00,
2013-09-20 14:25:00,62.4,45.1,29.75,SSE,154,0.0,3.0,53,0.00,,,0.00,VWS V14.01,2013-09-20 20:25:00,
2013-09-20 14:29:00,65.4,45.8,29.71,NW,318,4.0,5.0,49,0.00,,,0.00,VWS V14.01,2013-09-20 20:29:00,
2013-09-20 14:30:00,62.8,45.4,29.75,East,79,1.0,4.0,53,0.00,,,0.00,VWS V14.01,2013-09-20 20:30:00,
2013-09-20 14:34:00,65.7,45.5,29.71,NW,323,3.0,7.0,48,0.00,,,0.00,VWS V14.01,2013-09-20 20:34:00,
2013-09-20 14:35:00,62.9,45.0,29.75,ESE,115,1.0,4.0,52,0.00,,,0.00,VWS V14.01,2013-09-20 20:35:00,
2013-09-20 14:39:00,65.7,44.4,29.71,NW,305,2.0,7.0,46,0.00,,,0.00,VWS V14.01,2013-09-20 20:39:00,
2013-09-20 14:40:00,63.1,45.2,29.75,WSW,245,1.0,3.0,52,0.00,,,0.00,VWS V14.01,2013-09-20 20:40:00,
2013-09-20 14:44:00,65.8,43.9,29.70,NNE,27,6.0,9.0,45,0.00,,,0.00,VWS V14.01,2013-09-20 20:44:00,
2013-09-20 14:45:00,63.4,45.5,29.74,WNW,300,1.0,4.0,52,0.00,,,0.00,VWS V14.01,2013-09-20 20:45:00,
2013-09-20 14:49:00,66.2,45.4,29.70,NNW,347,2.0,6.0,47,0.00,,,0.00,VWS V14.01,2013-09-20 20:49:00,
2013-09-20 14:50:00,63.8,47.3,29.74,ENE,76,2.0,3.0,55,0.00,,,0.00,VWS V14.01,2013-09-20 20:50:00,
2013-09-20 14:54:00,66.2,43.7,29.70,NW,309,2.0,6.0,44,0.00,,,0.00,VWS V14.01,2013-09-20 20:54:00,
2013-09-20 14:55:00,64.2,43.6,29.73,NE,40,3.0,3.0,47,0.00,,,0.00,VWS V14.01,2013-09-20 20:55:00,
2013-09-20 14:59:00,66.0,44.7,29.69,NNW,335,3.0,7.0,46,0.00,,,0.00,VWS V14.01,2013-09-20 20:59:00,
2013-09-20 15:00:00,64.3,44.2,29.73,NE,35,4.0,7.0,48,0.00,,,0.00,VWS V14.01,2013-09-20 21:00:00,
2013-09-20 15:05:00,66.2,41.8,29.69,ENE,75,1.0,7.0,41,0.00,,,0.00,VWS V14.01,2013-09-20 21:05:00,
2013-09-20 15:10:00,66.6,41.5,29.69,NNW,333,2.0,7.0,40,0.00,,,0.00,VWS V14.01,2013-09-20 21:10:00,
2013-09-20 15:15:00,66.9,44.9,29.69,NE,34,4.0,5.0,45,0.00,,,0.00,VWS V14.01,2013-09-20 21:15:00,
2013-09-20 15:20:00,67.1,42.6,29.69,NNE,32,3.0,6.0,41,0.00,,,0.00,VWS V14.01,2013-09-20 21:20:00,
2013-09-20 15:25:00,67.2,42.7,29.69,NE,54,6.0,7.0,41,0.00,,,0.00,VWS V14.01,2013-09-20 21:25:00,
2013-09-20 15:30:00,66.8,43.6,29.68,ESE,119,2.0,6.0,43,0.00,,,0.00,VWS V14.01,2013-09-20 21:30:00,
2013-09-20 15:35:00,67.5,43.6,29.68,NNE,27,3.0,4.0,42,0.00,,,0.00,VWS V14.01,2013-09-20 21:35:00,
2013-09-20 15:40:00,67.6,43.1,29.68,NE,47,6.0,6.0,41,0.00,,,0.00,VWS V14.01,2013-09-20 21:40:00,
2013-09-20 15:45:00,67.3,43.5,29.68,ESE,108,2.0,6.0,42,0.00,,,0.00,VWS V14.01,2013-09-20 21:45:00,
2013-09-20 15:50:00,67.7,43.2,29.67,NE,34,3.0,5.0,41,0.00,,,0.00,VWS V14.01,2013-09-20 21:50:00,
2013-09-20 15:55:00,67.7,43.8,29.67,NW,312,0.0,4.0,42,0.00,,,0.00,VWS V14.01,2013-09-20 21:55:00,
2013-09-20 16:00:00,67.9,44.0,29.67,ENE,63,0.0,5.0,42,0.00,,,0.00,VWS V14.01,2013-09-20 22:00:00,
2013-09-20 16:05:00,67.9,42.7,29.67,NE,38,2.0,5.0,40,0.00,,,0.00,VWS V14.01,2013-09-20 22:05:00,
2013-09-20 16:10:00,68.0,44.7,29.67,NNE,27,2.0,6.0,43,0.00,,,0.00,VWS V14.01,2013-09-20 22:10:00,
2013-09-20 16:15:00,68.2,44.3,29.67,NW,325,1.0,3.0,42,0.00,,,0.00,VWS V14.01,2013-09-20 22:15:00,
2013-09-20 16:20:00,68.4,44.4,29.66,NW,315,1.0,4.0,42,0.00,,,0.00,VWS V14.01,2013-09-20 22:20:00,
2013-09-20 16:25:00,68.7,44.7,29.66,North,10,2.0,2.0,42,0.00,,,0.00,VWS V14.01,2013-09-20 22:25:00,
2013-09-20 16:30:00,68.7,44.1,29.66,NW,316,2.0,4.0,41,0.00,,,0.00,VWS V14.01,2013-09-20 22:30:00,
2013-09-20 16:35:00,68.6,44.0,29.66,NE,35,1.0,4.0,41,0.00,,,0.00,VWS V14.01,2013-09-20 22:35:00,
2013-09-20 16:40:00,68.8,43.5,29.66,ENE,72,1.0,4.0,40,0.00,,,0.00,VWS V14.01,2013-09-20 22:40:00,
2013-09-20 16:45:00,68.9,44.2,29.66,NNE,28,0.0,4.0,41,0.00,,,0.00,VWS V14.01,2013-09-20 22:45:00,
2013-09-20 16:50:00,69.1,45.1,29.65,NW,323,1.0,4.0,42,0.00,,,0.00,VWS V14.01,2013-09-20 22:50:00,
2013-09-20 16:55:00,69.2,45.2,29.65,North,6,5.0,5.0,42,0.00,,,0.00,VWS V14.01,2013-09-20 22:55:00,
2013-09-20 17:00:00,69.1,44.4,29.65,ENE,78,1.0,5.0,41,0.00,,,0.00,VWS V14.01,2013-09-20 23:00:00,
2013-09-20 17:05:00,69.1,44.4,29.65,NW,323,2.0,2.0,41,0.00,,,0.00,VWS V14.01,2013-09-20 23:05:00,
2013-09-20 17:10:00,69.2,41.8,29.64,East,91,1.0,1.0,37,0.00,,,0.00,VWS V14.01,2013-09-20 23:10:00,
2013-09-20 17:15:00,69.3,41.9,29.64,North,349,2.0,3.0,37,0.00,,,0.00,VWS V14.01,2013-09-20 23:15:00,
2013-09-20 17:20:00,69.4,44.1,29.64,East,99,3.0,3.0,40,0.00,,,0.00,VWS V14.01,2013-09-20 23:20:00,
2013-09-20 17:25:00,69.6,42.9,29.64,ENE,60,2.0,2.0,38,0.00,,,0.00,VWS V14.01,2013-09-20 23:25:00,
2013-09-20 17:30:00,69.9,43.2,29.63,ENE,60,1.0,1.0,38,0.00,,,0.00,VWS V14.01,2013-09-20 23:30:00,
2013-09-20 17:35:00,69.7,40.8,29.63,NE,46,1.0,2.0,35,0.00,,,0.00,VWS V14.01,2013-09-20 23:35:00,
2013-09-20 17:40:00,69.5,42.8,29.63,SE,141,3.0,4.0,38,0.00,,,0.00,VWS V14.01,2013-09-20 23:40:00,
2013-09-20 17:45:00,69.5,42.8,29.62,SE,125,3.0,3.0,38,0.00,,,0.00,VWS V14.01,2013-09-20 23:45:00,
2013-09-20 17:50:00,69.5,42.8,29.62,ESE,109,1.0,2.0,38,0.00,,,0.00,VWS V14.01,2013-09-20 23:50:00,
2013-09-20 17:55:00,69.6,41.5,29.62,East,89,2.0,3.0,36,0.00,,,0.00,VWS V14.01,2013-09-20 23:55:00,
2013-09-20 18:00:00,69.3,41.2,29.62,ENE,68,1.0,2.0,36,0.00,,,0.00,VWS V14.01,2013-09-21 00:00:00,
2013-09-20 18:05:00,69.5,42.8,29.62,SE,138,1.0,1.0,38,0.00,,,0.00,VWS V14.01,2013-09-21 00:05:00,
2013-09-20 18:10:00,69.8,41.7,29.61,SE,132,1.0,1.0,36,0.00,,,0.00,VWS V14.01,2013-09-21 00:10:00,
2013-09-20 18:15:00,69.7,41.6,29.61,ESE,110,0.0,1.0,36,0.00,,,0.00,VWS V14.01,2013-09-21 00:15:00,
2013-09-20 18:20:00,69.6,43.6,29.61,SE,135,1.0,1.0,39,0.00,,,0.00,VWS V14.01,2013-09-21 00:20:00,
2013-09-20 18:25:00,69.5,43.5,29.61,ESE,112,0.0,1.0,39,0.00,,,0.00,VWS V14.01,2013-09-21 00:25:00,
2013-09-20 18:30:00,69.4,42.0,29.60,SE,136,1.0,1.0,37,0.00,,,0.00,VWS V14.01,2013-09-21 00:30:00,
2013-09-20 18:35:00,69.4,44.1,29.60,SE,145,1.0,1.0,40,0.00,,,0.00,VWS V14.01,2013-09-21 00:35:00,
2013-09-20 18:40:00,69.6,46.1,29.60,SSW,198,1.0,2.0,43,0.00,,,0.00,VWS V14.01,2013-09-21 00:40:00,
2013-09-20 18:45:00,69.1,46.9,29.60,SSW,198,0.0,0.0,45,0.00,,,0.00,VWS V14.01,2013-09-21 00:45:00,
2013-09-20 18:50:00,69.4,47.2,29.60,SSW,198,0.0,0.0,45,0.00,,,0.00,VWS V14.01,2013-09-21 00:50:00,
2013-09-20 18:55:00,68.9,47.9,29.60,SSW,198,0.0,0.0,47,0.00,,,0.00,VWS V14.01,2013-09-21 00:55:00,
2013-09-20 19:00:00,69.3,41.2,29.62,East,85,0.0,3.0,36,0.00,,,0.00,VWS V14.01,2013-09-21 01:00:00,
2013-09-20 19:01:00,67.9,49.1,29.60,SSW,198,0.0,0.0,51,0.00,,,0.00,VWS V14.01,2013-09-21 01:01:00,
2013-09-20 19:05:00,69.4,42.7,29.62,SE,139,1.0,2.0,38,0.00,,,0.00,VWS V14.01,2013-09-21 01:05:00,
2013-09-20 19:06:00,66.7,48.5,29.59,SSW,198,0.0,0.0,52,0.00,,,0.00,VWS V14.01,2013-09-21 01:06:00,
2013-09-20 19:10:00,69.7,41.6,29.62,East,94,0.0,2.0,36,0.00,,,0.00,VWS V14.01,2013-09-21 01:10:00,
2013-09-20 19:11:00,65.9,49.8,29.59,SSW,197,0.0,0.0,56,0.00,,,0.00,VWS V14.01,2013-09-21 01:11:00,
2013-09-20 19:15:00,69.8,41.7,29.61,ESE,110,1.0,3.0,36,0.00,,,0.00,VWS V14.01,2013-09-21 01:15:00,
2013-09-20 19:16:00,65.2,48.6,29.59,SSW,197,0.0,0.0,55,0.00,,,0.00,VWS V14.01,2013-09-21 01:16:00,
2013-09-20 19:20:00,69.6,44.2,29.61,SE,135,0.0,2.0,40,0.00,,,0.00,VWS V14.01,2013-09-21 01:20:00,
2013-09-20 19:21:00,64.4,48.8,29.59,SSW,198,0.0,0.0,57,0.00,,,0.00,VWS V14.01,2013-09-21 01:21:00,
2013-09-20 19:26:00,62.8,49.6,29.59,SE,127,0.0,0.0,62,0.00,,,0.00,VWS V14.01,2013-09-21 01:26:00,
2013-09-20 19:30:00,69.5,42.8,29.60,SE,136,1.0,2.0,38,0.00,,,0.00,VWS V14.01,2013-09-21 01:30:00,
2013-09-20 19:31:00,61.1,48.8,29.58,SE,139,2.0,2.0,64,0.00,,,0.00,VWS V14.01,2013-09-21 01:31:00,
2013-09-20 19:35:00,69.4,43.4,29.60,SE,144,1.0,2.0,39,0.00,,,0.00,VWS V14.01,2013-09-21 01:35:00,
2013-09-20 19:36:00,59.0,48.1,29.58,SSE,150,3.0,3.0,67,0.00,,,0.00,VWS V14.01,2013-09-21 01:36:00,
2013-09-20 19:40:00,69.6,45.5,29.60,South,186,2.0,2.0,42,0.00,,,0.00,VWS V14.01,2013-09-21 01:40:00,
2013-09-20 19:41:00,57.8,48.1,29.58,SSE,163,0.0,1.0,70,0.00,,,0.00,VWS V14.01,2013-09-21 01:41:00,
2013-09-20 19:45:00,69.1,46.9,29.60,SSW,198,0.0,2.0,45,0.00,,,0.00,VWS V14.01,2013-09-21 01:45:00,
2013-09-20 19:46:00,57.2,48.3,29.58,SW,220,0.0,0.0,72,0.00,,,0.00,VWS V14.01,2013-09-21 01:46:00,
2013-09-20 19:50:00,69.3,47.1,29.60,SSW,198,0.0,0.0,45,0.00,,,0.00,VWS V14.01,2013-09-21 01:50:00,
2013-09-20 19:51:00,57.1,48.5,29.58,SE,143,1.0,1.0,73,0.00,,,0.00,VWS V14.01,2013-09-21 01:51:00,
2013-09-20 19:55:00,69.1,48.0,29.60,SSW,198,0.0,0.0,47,0.00,,,0.00,VWS V14.01,2013-09-21 01:55:00,
2013-09-20 19:56:00,56.7,48.5,29.58,SE,143,1.0,1.0,74,0.00,,,0.00,VWS V14.01,2013-09-21 01:56:00,
2013-09-20 20:00:00,68.1,49.3,29.60,SSW,198,0.0,0.0,51,0.00,,,0.00,VWS V14.01,2013-09-21 02:00:00,
2013-09-20 20:01:00,56.1,48.3,29.58,SE,143,0.0,1.0,75,0.00,,,0.00,VWS V14.01,2013-09-21 02:01:00,
2013-09-20 20:05:00,66.9,48.2,29.59,SSW,198,0.0,0.0,51,0.00,,,0.00,VWS V14.01,2013-09-21 02:05:00,
2013-09-20 20:06:00,55.7,48.3,29.58,SE,143,1.0,1.0,76,0.00,,,0.00,VWS V14.01,2013-09-21 02:06:00,
2013-09-20 20:10:00,66.0,49.9,29.59,SSW,198,0.0,0.0,56,0.00,,,0.00,VWS V14.01,2013-09-21 02:10:00,
2013-09-20 20:11:00,54.8,48.1,29.58,SE,134,1.0,1.0,78,0.00,,,0.00,VWS V14.01,2013-09-21 02:11:00,
2013-09-20 20:15:00,65.4,49.3,29.59,SSW,198,0.0,0.0,56,0.00,,,0.00,VWS V14.01,2013-09-21 02:15:00,
2013-09-20 20:16:00,54.4,47.7,29.58,SE,142,3.0,3.0,78,0.00,,,0.00,VWS V14.01,2013-09-21 02:16:00,
2013-09-20 20:21:00,53.6,47.3,29.58,SSE,148,2.0,3.0,79,0.00,,,0.00,VWS V14.01,2013-09-21 02:21:00,
2013-09-20 20:25:00,63.2,49.5,29.59,ESE,121,0.0,0.0,61,0.00,,,0.00,VWS V14.01,2013-09-21 02:25:00,
2013-09-20 20:26:00,52.9,46.2,29.58,SE,128,3.0,4.0,78,0.00,,,0.00,VWS V14.01,2013-09-21 02:26:00,
2013-09-20 20:30:00,61.5,49.2,29.58,SE,137,0.0,0.0,64,0.00,,,0.00,VWS V14.01,2013-09-21 02:30:00,
2013-09-20 20:31:00,52.2,46.5,29.58,ESE,122,2.0,3.0,81,0.00,,,0.00,VWS V14.01,2013-09-21 02:31:00,
2013-09-20 20:35:00,59.3,48.0,29.58,SE,143,2.0,3.0,66,0.00,,,0.00,VWS V14.01,2013-09-21 02:35:00,
2013-09-20 20:36:00,52.0,46.0,29.58,SSE,149,3.0,4.0,80,0.00,,,0.00,VWS V14.01,2013-09-21 02:36:00,
2013-09-20 20:40:00,58.0,48.3,29.58,SSE,149,1.0,3.0,70,0.00,,,0.00,VWS V14.01,2013-09-21 02:40:00,
2013-09-20 20:41:00,52.0,46.0,29.58,SE,146,4.0,5.0,80,0.00,,,0.00,VWS V14.01,2013-09-21 02:41:00,
2013-09-20 20:45:00,57.2,48.3,29.58,SW,220,0.0,1.0,72,0.00,,,0.00,VWS V14.01,2013-09-21 02:45:00,
2013-09-20 20:46:00,51.0,45.1,29.58,SE,131,1.0,2.0,80,0.00,,,0.00,VWS V14.01,2013-09-21 02:46:00,
2013-09-20 20:50:00,57.1,48.5,29.58,SE,131,0.0,1.0,73,0.00,,,0.00,VWS V14.01,2013-09-21 02:50:00,
2013-09-20 20:51:00,50.7,45.4,29.58,SSE,149,0.0,2.0,82,0.00,,,0.00,VWS V14.01,2013-09-21 02:51:00,
2013-09-20 20:55:00,56.8,48.6,29.58,SE,142,0.0,1.0,74,0.00,,,0.00,VWS V14.01,2013-09-21 02:55:00,
2013-09-20 20:56:00,50.8,45.8,29.58,SSE,149,0.0,1.0,83,0.00,,,0.00,VWS V14.01,2013-09-21 02:56:00,
2013-09-20 21:00:00,56.2,48.4,29.58,SE,143,0.0,1.0,75,0.00,,,0.00,VWS V14.01,2013-09-21 03:00:00,
2013-09-20 21:01:00,50.8,45.8,29.58,SE,134,1.0,1.0,83,0.00,,,0.00,VWS V14.01,2013-09-21 03:01:00,
2013-09-20 21:05:00,55.8,48.4,29.58,SE,143,0.0,1.0,76,0.00,,,0.00,VWS V14.01,2013-09-21 03:05:00,
2013-09-20 21:06:00,50.4,45.4,29.58,ESE,116,2.0,2.0,83,0.00,,,0.00,VWS V14.01,2013-09-21 03:06:00,
2013-09-20 21:10:00,55.0,48.3,29.58,SE,131,1.0,2.0,78,0.00,,,0.00,VWS V14.01,2013-09-21 03:10:00,
2013-09-20 21:11:00,50.5,45.2,29.58,SE,135,2.0,3.0,82,0.00,,,0.00,VWS V14.01,2013-09-21 03:11:00,
2013-09-20 21:15:00,54.5,48.1,29.58,SSE,152,2.0,3.0,79,0.00,,,0.00,VWS V14.01,2013-09-21 03:15:00,
2013-09-20 21:16:00,50.0,45.0,29.57,SE,138,2.0,3.0,83,0.00,,,0.00,VWS V14.01,2013-09-21 03:16:00,
2013-09-20 21:20:00,53.7,47.3,29.58,SE,143,2.0,3.0,79,0.00,,,0.00,VWS V14.01,2013-09-21 03:20:00,
2013-09-20 21:21:00,49.6,45.0,29.57,West,280,1.0,2.0,84,0.00,,,0.00,VWS V14.01,2013-09-21 03:21:00,
2013-09-20 21:25:00,53.2,46.5,29.58,SE,132,3.0,4.0,78,0.00,,,0.00,VWS V14.01,2013-09-21 03:25:00,
2013-09-20 21:26:00,49.0,44.7,29.57,West,280,0.0,0.0,85,0.00,,,0.00,VWS V14.01,2013-09-21 03:26:00,
2013-09-20 21:30:00,52.3,46.3,29.58,SE,125,2.0,4.0,80,0.00,,,0.00,VWS V14.01,2013-09-21 03:30:00,
2013-09-20 21:31:00,48.8,44.8,29.57,West,281,1.0,1.0,86,0.00,,,0.00,VWS V14.01,2013-09-21 03:31:00,
2013-09-20 21:35:00,52.2,46.2,29.58,SE,139,3.0,3.0,80,0.00,,,0.00,VWS V14.01,2013-09-21 03:35:00,
2013-09-20 21:36:00,48.9,45.2,29.57,NE,37,0.0,0.0,87,0.00,,,0.00,VWS V14.01,2013-09-21 03:36:00,
2013-09-20 21:40:00,52.0,46.0,29.58,SE,146,4.0,5.0,80,0.00,,,0.00,VWS V14.01,2013-09-21 03:40:00,
2013-09-20 21:41:00,48.8,45.1,29.57,NE,37,0.0,0.0,87,0.00,,,0.00,VWS V14.01,2013-09-21 03:41:00,
2013-09-20 21:45:00,51.4,45.1,29.58,SE,134,2.0,5.0,79,0.00,,,0.00,VWS V14.01,2013-09-21 03:45:00,
2013-09-20 21:46:00,48.7,44.7,29.58,NW,318,1.0,1.0,86,0.00,,,0.00,VWS V14.01,2013-09-21 03:46:00,
2013-09-20 21:50:00,50.6,45.3,29.58,SSE,156,2.0,2.0,82,0.00,,,0.00,VWS V14.01,2013-09-21 03:50:00,
2013-09-20 21:52:00,48.8,45.7,29.57,NW,318,0.0,1.0,89,0.00,,,0.00,VWS V14.01,2013-09-21 03:52:00,
2013-09-20 21:55:00,50.7,45.4,29.58,SSE,149,1.0,2.0,82,0.00,,,0.00,VWS V14.01,2013-09-21 03:55:00,
2013-09-20 21:57:00,48.5,45.4,29.58,NW,319,1.0,1.0,89,0.00,,,0.00,VWS V14.01,2013-09-21 03:57:00,
2013-09-20 22:00:00,50.9,45.9,29.58,SE,134,1.0,1.0,83,0.00,,,0.00,VWS V14.01,2013-09-21 04:00:00,
2013-09-20 22:01:00,48.7,45.9,29.57,NW,319,0.0,0.0,90,0.00,,,0.00,VWS V14.01,2013-09-21 04:01:00,
2013-09-20 22:05:00,50.5,45.5,29.58,ESE,122,2.0,2.0,83,0.00,,,0.00,VWS V14.01,2013-09-21 04:05:00,
2013-09-20 22:06:00,48.8,45.7,29.57,NW,318,0.0,0.0,89,0.00,,,0.00,VWS V14.01,2013-09-21 04:06:00,
2013-09-20 22:10:00,50.4,45.4,29.58,SE,134,2.0,3.0,83,0.00,,,0.00,VWS V14.01,2013-09-21 04:10:00,
2013-09-20 22:11:00,48.5,45.4,29.57,NW,318,0.0,0.0,89,0.00,,,0.00,VWS V14.01,2013-09-21 04:11:00,
2013-09-20 22:15:00,50.1,44.8,29.58,SE,131,3.0,3.0,82,0.00,,,0.00,VWS V14.01,2013-09-21 04:15:00,
2013-09-20 22:16:00,48.3,45.5,29.57,NW,318,0.0,0.0,90,0.00,,,0.00,VWS V14.01,2013-09-21 04:16:00,
2013-09-20 22:20:00,49.8,44.8,29.57,SSW,200,1.0,3.0,83,0.00,,,0.00,VWS V14.01,2013-09-21 04:20:00,
2013-09-20 22:21:00,47.9,45.1,29.57,NW,318,0.0,0.0,90,0.00,,,0.00,VWS V14.01,2013-09-21 04:21:00,
2013-09-20 22:25:00,49.2,44.6,29.57,West,279,0.0,2.0,84,0.00,,,0.00,VWS V14.01,2013-09-21 04:25:00,
2013-09-20 22:26:00,47.9,45.4,29.57,NW,318,0.0,0.0,91,0.00,,,0.00,VWS V14.01,2013-09-21 04:26:00,
2013-09-20 22:30:00,48.8,44.8,29.57,West,280,0.0,0.0,86,0.00,,,0.00,VWS V14.01,2013-09-21 04:30:00,
2013-09-20 22:32:00,47.8,45.3,29.57,NW,318,0.0,0.0,91,0.00,,,0.00,VWS V14.01,2013-09-21 04:32:00,
2013-09-20 22:35:00,48.9,45.2,29.57,NE,37,0.0,1.0,87,0.00,,,0.00,VWS V14.01,2013-09-21 04:35:00,
2013-09-20 22:37:00,47.3,44.8,29.57,NW,318,0.0,0.0,91,0.00,,,0.00,VWS V14.01,2013-09-21 04:37:00,
2013-09-20 22:40:00,48.9,44.9,29.57,NE,37,0.0,0.0,86,0.00,,,0.00,VWS V14.01,2013-09-21 04:40:00,
2013-09-20 22:42:00,47.1,44.9,29.57,NW,318,0.0,0.0,92,0.00,,,0.00,VWS V14.01,2013-09-21 04:42:00,
2013-09-20 22:45:00,48.9,45.2,29.58,NNW,345,1.0,1.0,87,0.00,,,0.00,VWS V14.01,2013-09-21 04:45:00,
2013-09-20 22:47:00,47.0,44.8,29.57,NW,318,0.0,0.0,92,0.00,,,0.00,VWS V14.01,2013-09-21 04:47:00,
2013-09-20 22:50:00,48.7,45.3,29.58,NW,318,1.0,1.0,88,0.00,,,0.00,VWS V14.01,2013-09-21 04:50:00,
2013-09-20 22:52:00,46.6,44.4,29.57,NW,318,0.0,0.0,92,0.00,,,0.00,VWS V14.01,2013-09-21 04:52:00,
2013-09-20 22:55:00,48.5,45.1,29.57,NW,317,1.0,1.0,88,0.00,,,0.00,VWS V14.01,2013-09-21 04:55:00,
2013-09-20 22:57:00,46.4,44.2,29.57,NW,319,0.0,0.0,92,0.00,,,0.00,VWS V14.01,2013-09-21 04:57:00,
2013-09-20 23:00:00,48.7,45.9,29.57,NW,318,0.0,1.0,90,0.00,,,0.00,VWS V14.01,2013-09-21 05:00:00,
2013-09-20 23:02:00,46.7,44.8,29.57,ENE,65,0.0,0.0,93,0.00,,,0.00,VWS V14.01,2013-09-21 05:02:00,
2013-09-20 23:05:00,48.8,45.7,29.57,NW,318,0.0,0.0,89,0.00,,,0.00,VWS V14.01,2013-09-21 05:05:00,
2013-09-20 23:07:00,46.5,43.7,29.57,ESE,103,0.0,0.0,90,0.00,,,0.00,VWS V14.01,2013-09-21 05:07:00,
2013-09-20 23:10:00,48.5,45.4,29.57,NW,318,0.0,0.0,89,0.00,,,0.00,VWS V14.01,2013-09-21 05:10:00,
2013-09-20 23:12:00,46.5,43.1,29.57,ESE,108,0.0,0.0,88,0.00,,,0.00,VWS V14.01,2013-09-21 05:12:00,
2013-09-20 23:15:00,48.3,45.2,29.57,NW,318,0.0,0.0,89,0.00,,,0.00,VWS V14.01,2013-09-21 05:15:00,
2013-09-20 23:17:00,46.2,42.2,29.56,ESE,108,0.0,0.0,86,0.00,,,0.00,VWS V14.01,2013-09-21 05:17:00,
2013-09-20 23:20:00,48.1,45.3,29.57,NW,318,0.0,0.0,90,0.00,,,0.00,VWS V14.01,2013-09-21 05:20:00,
2013-09-20 23:22:00,45.7,41.8,29.56,ESE,108,0.0,0.0,86,0.00,,,0.00,VWS V14.01,2013-09-21 05:22:00,
2013-09-20 23:25:00,47.9,45.4,29.57,NW,318,0.0,0.0,91,0.00,,,0.00,VWS V14.01,2013-09-21 05:25:00,
2013-09-20 23:27:00,45.1,41.5,29.56,ESE,109,0.0,0.0,87,0.00,,,0.00,VWS V14.01,2013-09-21 05:27:00,
2013-09-20 23:30:00,47.8,45.3,29.57,NW,318,0.0,0.0,91,0.00,,,0.00,VWS V14.01,2013-09-21 05:30:00,
2013-09-20 23:32:00,45.0,41.7,29.56,ESE,117,0.0,0.0,88,0.00,,,0.00,VWS V14.01,2013-09-21 05:32:00,
2013-09-20 23:35:00,47.5,45.0,29.57,NW,318,0.0,0.0,91,0.00,,,0.00,VWS V14.01,2013-09-21 05:35:00,
2013-09-20 23:37:00,45.2,41.6,29.56,ESE,117,0.0,0.0,87,0.00,,,0.00,VWS V14.01,2013-09-21 05:37:00,
2013-09-20 23:40:00,47.2,45.0,29.57,NW,318,0.0,0.0,92,0.00,,,0.00,VWS V14.01,2013-09-21 05:40:00,
2013-09-20 23:42:00,45.2,42.2,29.56,ESE,117,0.0,0.0,89,0.00,,,0.00,VWS V14.01,2013-09-21 05:42:00,
2013-09-20 23:45:00,47.1,44.9,29.57,NW,317,0.0,0.0,92,0.00,,,0.00,VWS V14.01,2013-09-21 05:45:00,
2013-09-20 23:47:00,45.3,42.5,29.56,ESE,117,0.0,0.0,90,0.00,,,0.00,VWS V14.01,2013-09-21 05:47:00,
2013-09-20 23:50:00,46.8,44.6,29.57,NW,318,0.0,0.0,92,0.00,,,0.00,VWS V14.01,2013-09-21 05:50:00,
2013-09-20 23:52:00,44.9,41.9,29.57,ESE,117,0.0,0.0,89,0.00,,,0.00,VWS V14.01,2013-09-21 05:52:00,
2013-09-20 23:55:00,46.5,44.3,29.57,NW,317,0.0,0.0,92,0.00,,,0.00,VWS V14.01,2013-09-21 05:55:00,
2013-09-20 23:57:00,44.6,41.8,29.56,ESE,117,0.0,0.0,90,0.00,,,0.00,VWS V14.01,2013-09-21 05:57:00,